• Em Portugal
  • Lista de países
  • Para 7 dias
  • Temperatura da água
  • Mapas de satélite
  • Mapa do tempo
  • Widgets de tempo
  • user-avatar
    Iniciar Sessão

    Previsão horária em Struga

    Hoje, 16 Julho, Segunda-feira

    Tempo Temperatura Precipitação Vento Pressão Humidade
    00:00 +15°C° 0 mm 1 m/s 726 mmHg 76%
    01:00 +15°C° 0 mm 1 m/s 726 mmHg 74%
    02:00 +15°C° 0 mm 1 m/s 726 mmHg 74%
    03:00 +14°C° 0 mm 1 m/s 726 mmHg 75%
    04:00 +14°C° 0 mm 1 m/s 726 mmHg 75%
    05:00 +16°C° 0 mm 1 m/s 726 mmHg 72%
    06:00 +18°C° 0 mm 1 m/s 726 mmHg 68%
    07:00 +20°C° 0 mm 1 m/s 726 mmHg 65%
    08:00 +21°C° 0 mm 2 m/s 726 mmHg 61%
    09:00 +23°C° 0 mm 2 m/s 726 mmHg 56%
    10:00 +25°C° 0 mm 2 m/s 726 mmHg 52%
    11:00 +25°C° 0 mm 2 m/s 726 mmHg 49%
    12:00 +26°C° 0 mm 2 m/s 725 mmHg 47%
    13:00 +27°C° 0 mm 2 m/s 725 mmHg 44%
    14:00 +27°C° 0 mm 2 m/s 725 mmHg 46%
    15:00 +26°C° 0 mm 2 m/s 724 mmHg 47%
    16:00 +26°C° 0 mm 2 m/s 724 mmHg 48%
    17:00 +25°C° 0 mm 2 m/s 724 mmHg 54%
    18:00 +24°C° 0 mm 2 m/s 723 mmHg 60%
    19:00 +23°C° 0 mm 1 m/s 723 mmHg 66%
    20:00 +21°C° 0,2 mm 1 m/s 723 mmHg 69%
    21:00 +20°C° 0,2 mm 1 m/s 723 mmHg 72%
    22:00 +19°C° 0,2 mm 1 m/s 723 mmHg 75%
    23:00 +18°C° 0,2 mm 1 m/s 723 mmHg 78%

    Amanhã, 17 Julho, Terça-feira

    Tempo Temperatura Precipitação Vento Pressão Humidade
    00:00 +16°C° 0,2 mm 2 m/s 723 mmHg 81%
    01:00 +16°C° 0,2 mm 2 m/s 723 mmHg 85%
    02:00 +16°C° 0 mm 2 m/s 723 mmHg 86%
    03:00 +15°C° 0 mm 2 m/s 723 mmHg 88%
    04:00 +15°C° 0 mm 2 m/s 722 mmHg 90%
    05:00 +16°C° 0 mm 3 m/s 722 mmHg 87%
    06:00 +18°C° 0 mm 3 m/s 723 mmHg 84%
    07:00 +19°C° 0 mm 4 m/s 723 mmHg 81%
    08:00 +19°C° 0,3 mm 4 m/s 723 mmHg 80%
    09:00 +20°C° 0,3 mm 5 m/s 723 mmHg 78%
    10:00 +20°C° 0,3 mm 5 m/s 723 mmHg 77%
    11:00 +20°C° 0,5 mm 6 m/s 723 mmHg 77%
    12:00 +20°C° 0,5 mm 6 m/s 723 mmHg 77%
    13:00 +20°C° 0,5 mm 6 m/s 723 mmHg 77%
    14:00 +19°C° 0,2 mm 6 m/s 723 mmHg 77%
    15:00 +19°C° 0,2 mm 6 m/s 722 mmHg 78%
    16:00 +19°C° 0,2 mm 6 m/s 722 mmHg 78%
    17:00 +17°C° 0,1 mm 6 m/s 723 mmHg 81%
    18:00 +17°C° 0,1 mm 5 m/s 723 mmHg 84%
    19:00 +17°C° 0,1 mm 4 m/s 723 mmHg 86%
    20:00 +15°C° 0 mm 4 m/s 723 mmHg 88%
    21:00 +15°C° 0 mm 4 m/s 723 mmHg 90%
    22:00 +14°C° 0 mm 4 m/s 723 mmHg 92%
    23:00 +14°C° 0 mm 4 m/s 723 mmHg 92%

    Depois de amanhã, 18 Julho, Quarta-feira

    Tempo Temperatura Precipitação Vento Pressão Humidade
    00:00 +14°C° 0 mm 4 m/s 722 mmHg 93%
    01:00 +14°C° 0 mm 4 m/s 722 mmHg 93%
    02:00 +14°C° 0 mm 4 m/s 722 mmHg 92%
    03:00 +14°C° 0 mm 4 m/s 723 mmHg 92%
    04:00 +15°C° 0 mm 5 m/s 723 mmHg 92%
    05:00 +15°C° 0,1 mm 5 m/s 723 mmHg 89%
    06:00 +16°C° 0,1 mm 5 m/s 723 mmHg 87%
    07:00 +16°C° 0,1 mm 6 m/s 723 mmHg 84%
    08:00 +17°C° 0,3 mm 6 m/s 723 mmHg 79%
    09:00 +19°C° 0,3 mm 6 m/s 724 mmHg 74%
    10:00 +20°C° 0,3 mm 6 m/s 724 mmHg 69%
    11:00 +21°C° 0,6 mm 6 m/s 724 mmHg 69%
    12:00 +21°C° 0,6 mm 6 m/s 724 mmHg 68%
    13:00 +22°C° 0,6 mm 5 m/s 724 mmHg 67%
    14:00 +22°C° 0,4 mm 5 m/s 724 mmHg 68%
    15:00 +22°C° 0,4 mm 4 m/s 724 mmHg 68%
    16:00 +22°C° 0,4 mm 4 m/s 724 mmHg 68%
    17:00 +21°C° 0,2 mm 4 m/s 724 mmHg 71%
    18:00 +20°C° 0,2 mm 3 m/s 724 mmHg 75%
    19:00 +19°C° 0,2 mm 3 m/s 724 mmHg 78%
    20:00 +19°C° 0,1 mm 3 m/s 724 mmHg 81%
    21:00 +18°C° 0,1 mm 3 m/s 725 mmHg 84%
    22:00 +17°C° 0,1 mm 2 m/s 725 mmHg 87%
    23:00 +17°C° 0 mm 3 m/s 725 mmHg 88%

    19 Julho, Quinta-feira

    Tempo Temperatura Precipitação Vento Pressão Humidade
    00:00 +17°C° 0 mm 3 m/s 725 mmHg 90%
    01:00 +16°C° 0 mm 3 m/s 725 mmHg 91%
    02:00 +16°C° 0,1 mm 3 m/s 725 mmHg 92%
    03:00 +16°C° 0,1 mm 3 m/s 725 mmHg 92%
    04:00 +14°C° 0,1 mm 4 m/s 725 mmHg 93%
    05:00 +15°C° 0,1 mm 4 m/s 725 mmHg 90%
    06:00 +16°C° 0,1 mm 5 m/s 725 mmHg 88%
    07:00 +17°C° 0,1 mm 5 m/s 725 mmHg 85%
    08:00 +17°C° 0,3 mm 5 m/s 725 mmHg 81%
    09:00 +19°C° 0,3 mm 5 m/s 726 mmHg 78%
    10:00 +20°C° 0,3 mm 5 m/s 726 mmHg 74%
    11:00 +20°C° 0,3 mm 5 m/s 726 mmHg 70%
    12:00 +21°C° 0,3 mm 5 m/s 726 mmHg 67%
    13:00 +22°C° 0,3 mm 5 m/s 726 mmHg 63%
    14:00 +23°C° 0,1 mm 5 m/s 726 mmHg 61%
    15:00 +23°C° 0,1 mm 4 m/s 726 mmHg 60%
    16:00 +25°C° 0,1 mm 4 m/s 726 mmHg 58%
    17:00 +22°C° 0 mm 4 m/s 726 mmHg 64%
    18:00 +21°C° 0 mm 3 m/s 726 mmHg 70%
    19:00 +20°C° 0 mm 2 m/s 726 mmHg 75%
    20:00 +19°C° 0 mm 2 m/s 726 mmHg 79%
    21:00 +18°C° 0 mm 2 m/s 726 mmHg 83%
    22:00 +16°C° 0 mm 2 m/s 726 mmHg 88%
    23:00 +16°C° 0 mm 2 m/s 726 mmHg 88%

    20 Julho, Sexta-feira

    Tempo Temperatura Precipitação Vento Pressão Humidade
    00:00 +15°C° 0 mm 2 m/s 726 mmHg 89%
    01:00 +15°C° 0 mm 2 m/s 726 mmHg 89%
    02:00 +14°C° 0 mm 2 m/s 726 mmHg 89%
    03:00 +14°C° 0 mm 2 m/s 726 mmHg 89%
    04:00 +13°C° 0 mm 2 m/s 726 mmHg 88%
    05:00 +15°C° 0 mm 2 m/s 726 mmHg 82%
    06:00 +16°C° 0 mm 2 m/s 726 mmHg 75%
    07:00 +18°C° 0 mm 2 m/s 726 mmHg 69%
    08:00 +19°C° 0 mm 2 m/s 726 mmHg 61%
    09:00 +21°C° 0 mm 2 m/s 726 mmHg 53%
    10:00 +23°C° 0 mm 2 m/s 726 mmHg 45%
    11:00 +24°C° 0 mm 2 m/s 726 mmHg 43%
    12:00 +25°C° 0 mm 2 m/s 726 mmHg 40%
    13:00 +26°C° 0 mm 2 m/s 726 mmHg 37%
    14:00 +26°C° 0 mm 2 m/s 725 mmHg 37%
    15:00 +26°C° 0 mm 2 m/s 725 mmHg 37%
    16:00 +26°C° 0 mm 2 m/s 725 mmHg 37%
    17:00 +25°C° 0 mm 2 m/s 724 mmHg 44%
    18:00 +23°C° 0 mm 1 m/s 724 mmHg 50%
    19:00 +22°C° 0 mm 1 m/s 724 mmHg 57%
    20:00 +20°C° 0 mm 1 m/s 724 mmHg 60%
    21:00 +19°C° 0 mm 1 m/s 724 mmHg 63%
    22:00 +16°C° 0 mm 1 m/s 724 mmHg 66%
    23:00 +16°C° 0 mm 1 m/s 724 mmHg 67%

    21 Julho, Sábado

    Tempo Temperatura Precipitação Vento Pressão Humidade
    00:00 +15°C° 0 mm 1 m/s 724 mmHg 68%
    01:00 +15°C° 0 mm 1 m/s 724 mmHg 69%
    02:00 +14°C° 0 mm 1 m/s 724 mmHg 69%
    03:00 +14°C° 0 mm 1 m/s 723 mmHg 70%
    04:00 +14°C° 0 mm 1 m/s 723 mmHg 70%
    05:00 +16°C° 0 mm 1 m/s 724 mmHg 66%
    06:00 +19°C° 0 mm 1 m/s 724 mmHg 62%
    07:00 +18°C° 0 mm 0 m/s 724 mmHg 58%
    08:00 +22°C° 0 mm 1 m/s 724 mmHg 55%
    09:00 +23°C° 0 mm 1 m/s 724 mmHg 51%
    10:00 +25°C° 0 mm 1 m/s 724 mmHg 48%
    11:00 +25°C° 0 mm 1 m/s 724 mmHg 46%
    12:00 +26°C° 0 mm 1 m/s 724 mmHg 45%
    13:00 +26°C° 0 mm 1 m/s 724 mmHg 44%
    14:00 +26°C° 0 mm 1 m/s 723 mmHg 45%
    15:00 +26°C° 0 mm 1 m/s 723 mmHg 46%
    16:00 +26°C° 0 mm 1 m/s 723 mmHg 47%
    17:00 +25°C° 0 mm 1 m/s 723 mmHg 53%
    18:00 +23°C° 0 mm 2 m/s 723 mmHg 59%
    19:00 +21°C° 0 mm 2 m/s 723 mmHg 65%
    20:00 +20°C° 0 mm 2 m/s 723 mmHg 69%
    21:00 +19°C° 0 mm 1 m/s 723 mmHg 73%
    22:00 +18°C° 0 mm 1 m/s 722 mmHg 78%
    23:00 +18°C° 0 mm 1 m/s 723 mmHg 79%
    Mostrar mais